This is the latest recevied weather packets stored in our database for station/object OK9CPU-9. If no packets are shown the sender has not sent any weather packets the latest 10 day(s).
| Time | Temp. | Humidity | Pressure | Rain* | Wind** | Luminosity | Snow |
|---|---|---|---|---|---|---|---|
| 1777775281 | 6.11° C | 27% | 1019.5 hPa | - | - | - | - |
| 1777774294 | 6.67° C | 27% | 1019.4 hPa | - | - | - | - |
| 1777773291 | 6.11° C | 27% | 1019.4 hPa | - | - | - | - |
| 1777772304 | 6.67° C | 27% | 1019.4 hPa | - | - | - | - |
| 1777771309 | 6.67° C | 27% | 1019.3 hPa | - | - | - | - |
| 1777770306 | 7.22° C | 27% | 1019.3 hPa | - | - | - | - |
| 1777769311 | 7.78° C | 27% | 1019.2 hPa | - | - | - | - |
| 1777768316 | 8.33° C | 27% | 1019.2 hPa | - | - | - | - |
| 1777767321 | 8.33° C | 27% | 1019.2 hPa | - | - | - | - |
| 1777766326 | 8.89° C | 27% | 1019.1 hPa | - | - | - | - |
| 1777765331 | 8.89° C | 27% | 1019.3 hPa | - | - | - | - |
| 1777764336 | 8.89° C | 28% | 1019.4 hPa | - | - | - | - |
| 1777763348 | 9.44° C | 28% | 1019.3 hPa | - | - | - | - |
| 1777762353 | 9.44° C | 28% | 1019.4 hPa | - | - | - | - |
| 1777761351 | 10° C | 28% | 1019.5 hPa | - | - | - | - |
| 1777760363 | 10° C | 28% | 1019.7 hPa | - | - | - | - |
| 1777759361 | 10.56° C | 28% | 1019.7 hPa | - | - | - | - |
| 1777758366 | 10.56° C | 28% | 1019.7 hPa | - | - | - | - |
| 1777757378 | 11.11° C | 28% | 1019.7 hPa | - | - | - | - |
| 1777756376 | 11.67° C | 29% | 1019.8 hPa | - | - | - | - |
| 1777755381 | 12.22° C | 29% | 1019.8 hPa | - | - | - | - |
| 1777754386 | 12.78° C | 29% | 1020 hPa | - | - | - | - |
| 1777753391 | 13.33° C | 29% | 1020 hPa | - | - | - | - |
| 1777752403 | 13.33° C | 29% | 1020.1 hPa | - | - | - | - |
| 1777751401 | 13.89° C | 29% | 1020.1 hPa | - | - | - | - |
* Rain since midnight (hover to see other rain measurements)
** Current wind speed in m/s (hover to see current wind gust speed)